Printer-friendly version

IAU Minor Planet Center

Minor Planet Center

MPEC 2006-S35 : 2006 SD25

The following Minor Planet Electronic Circular may be linked-to from your own Web pages, but must not otherwise be redistributed electronically.


Read MPEC 2006-S34 Read MPEC 2006-S36


M.P.E.C. 2006-S35                                Issued 2006 Sept. 20, 21:22 UT

     The Minor Planet Electronic Circulars contain information on unusual
         minor planets and routine data on comets.  They are published
   on behalf of Commission 20 of the International Astronomical Union by the
          Minor Planet Center, Smithsonian Astrophysical Observatory,
                          Cambridge, MA 02138, U.S.A.

                  Supported in part by the Brinson Foundation
                  Supported in part by the TABASGO Foundation
             Prepared using the Tamkin Foundation Computer Network

                              MPC@CFA.HARVARD.EDU
          URL http://cfa-www.harvard.edu/iau/mpc.html  ISSN 1523-6714

                                   2006 SD25

Observations:
     K06S25D* C2006 09 20.24479 22 00 54.79 +19 13 16.7          18.6 V ES035703
     K06S25D  C2006 09 20.25079 22 01 01.30 +19 13 38.4          18.8 V ES035703
     K06S25D  C2006 09 20.25677 22 01 07.86 +19 14 00.7          18.6 V ES035703
     K06S25D  C2006 09 20.29227 22 01 46.63 +19 16 07.4          18.1 V ES035703
     K06S25D  C2006 09 20.29332 22 01 47.78 +19 16 11.6          18.5 V ES035703
     K06S25D  C2006 09 20.29384 22 01 48.32 +19 16 13.1          18.6 V ES035703
     K06S25D  C2006 09 20.86107 22 12 39.44 +19 48 06.9          19.2 V ES035198
     K06S25D  C2006 09 20.86180 22 12 40.23 +19 48 09.3          19.2 V ES035198
     K06S25D  C2006 09 20.86437 22 12 42.87 +19 48 17.5          19.2 V ES035198
     K06S25D  C2006 09 20.86547 22 12 44.04 +19 48 21.1          19.0 V ES035198

Observer details:
198 Wildberg.  Observer R. Apitzsch.  0.35-m f/4.2 reflector + CCD.
703 Catalina Sky Survey.  Observer E. J. Christensen.  Measurers E. C. Beshore,
    E. J. Christensen, G. J. Garradd, A. R. Gibbs, A. D. Grauer, R. E. Hill,
    R. A. Kowalski, S. M. Larson, R. H. McNaught.  0.68-m Schmidt + CCD.

Orbital elements:
2006 SD25                                                Earth MOID = 0.0181 AU
Epoch 2006 Sept. 22.0 TT = JDT 2454000.5                MPC
M   7.54133              (2000.0)            P               Q
n   0.36434130     Peri.   42.37598     +0.90412255     +0.42667047
a   1.9414690      Node   292.35455     -0.39829870     +0.82240219
e   0.4744978      Incl.    1.40567     -0.15466274     +0.37630699
P   2.71           H   24.0           G   0.15           U   9
Residuals in seconds of arc
060920 703  0.2+  0.3+    060920 703  0.2+  0.0     060920 198  0.6-  0.1-
060920 703  0.4-  0.0     060920 703  0.2-  0.4-    060920 198  0.6-  0.1-
060920 703  0.1+  0.5+    060920 198  0.5+  0.2+
060920 703  0.1+  0.5-    060920 198  0.7+  0.2+

Ephemeris:
2006 SD25                a,e,i = 1.94, 0.47, 1                   q = 1.0202
Date    TT    R. A. (2000) Decl.     Delta      r     Elong.  Phase     V
2006 09 12    19 10.38   +04 51.4    0.0452   1.028   117.1    60.7    19.5
2006 09 17    20 53.42   +14 43.1    0.0431   1.037   135.9    42.4    18.9
2006 09 22    22 32.92   +20 43.1    0.0508   1.048   150.7    27.9    18.9
2006 09 27    23 41.73   +22 21.2    0.0654   1.063   157.7    20.9    19.2
2006 10 02    00 24.02   +22 10.0    0.0838   1.081   161.1    17.4    19.7
2006 10 07    00 50.33   +21 27.2    0.105    1.101   163.9    14.6    20.1
2006 10 12    01 07.40   +20 37.2    0.128    1.123   166.6    11.9    20.5
2006 10 17    01 18.96   +19 47.5    0.153    1.147   169.1     9.4    20.8
2006 10 22    01 27.18   +19 01.1    0.179    1.173   170.8     7.8    21.2
2006 10 27    01 33.41   +18 19.6    0.209    1.200   170.6     7.8    21.5
2006 11 01    01 38.49   +17 43.8    0.240    1.229   168.6     9.2    22.0

Timothy B. Spahr             (C) Copyright 2006 MPC           M.P.E.C. 2006-S35

Read MPEC 2006-S34 Read MPEC 2006-S36


Our Web policy. Index to the CBAT/MPC/ICQ pages.


Valid HTML 4.01!